This is the latest recevied weather packets stored in our database for station/object N8SHA. If no packets are shown the sender has not sent any weather packets the latest 10 day(s).
| Time | Temp. | Humidity | Pressure | Rain* | Wind** | Luminosity | Snow |
|---|---|---|---|---|---|---|---|
| 1777507928 | 6.67° C | 92% | 1012 hPa | 0 mm | - | 3 W/m² | - |
| 1777507625 | 7.22° C | 92% | 1011.9 hPa | 0.51 mm | - | 5 W/m² | - |
| 1777507321 | 7.22° C | 92% | 1011.8 hPa | 0.51 mm | - | 6 W/m² | - |
| 1777507019 | 7.22° C | 91% | 1011.8 hPa | 0 mm | - | 8 W/m² | - |
| 1777506716 | 7.22° C | 91% | 1011.4 hPa | 0.51 mm | - | 13 W/m² | - |
| 1777506412 | 7.22° C | 91% | 1011.6 hPa | 0.51 mm | - | 18 W/m² | - |
| 1777506108 | 7.22° C | 91% | 1011.6 hPa | 0 mm | - | 23 W/m² | - |
| 1777505804 | 7.22° C | 91% | 1011.6 hPa | 0 mm | - | 19 W/m² | - |
| 1777505501 | 7.22° C | 91% | 1011.6 hPa | 0.51 mm | - | 19 W/m² | - |
| 1777505198 | 7.22° C | 91% | 1011.6 hPa | 0.51 mm | - | 25 W/m² | - |
| 1777504895 | 7.22° C | 91% | 1011.5 hPa | 0 mm | - | 27 W/m² | - |
| 1777504592 | 7.22° C | 91% | 1011.6 hPa | 0.51 mm | - | 24 W/m² | - |
| 1777504287 | 7.78° C | 91% | 1011.4 hPa | 1.27 mm | - | 35 W/m² | - |
| 1777503983 | 7.78° C | 90% | 1011.5 hPa | 0.51 mm | - | 47 W/m² | - |
| 1777503680 | 7.78° C | 91% | 1011.5 hPa | 0.51 mm | - | 43 W/m² | - |
| 1777503376 | 7.78° C | 91% | 1011.5 hPa | 0.51 mm | - | 46 W/m² | - |
| 1777503073 | 7.78° C | 90% | 1011.2 hPa | 0.51 mm | - | 48 W/m² | - |
| 1777502770 | 7.78° C | 89% | 1011.5 hPa | 1.78 mm | - | 64 W/m² | - |
| 1777502467 | 8.33° C | 89% | 1011.5 hPa | 0.51 mm | - | 68 W/m² | - |
| 1777502164 | 8.33° C | 88% | 1011.3 hPa | 0 mm | - | 64 W/m² | - |
| 1777501862 | 8.33° C | 88% | 1011.3 hPa | 0.51 mm | - | 71 W/m² | - |
| 1777501558 | 8.33° C | 88% | 1011.3 hPa | 0.51 mm | - | 79 W/m² | - |
| 1777501255 | 8.33° C | 88% | 1011.3 hPa | 0.51 mm | - | 86 W/m² | - |
| 1777500953 | 8.33° C | 87% | 1011.2 hPa | 0.51 mm | - | 83 W/m² | - |
| 1777500651 | 8.33° C | 89% | 1011.4 hPa | 0.51 mm | - | 102 W/m² | - |
* Rain latest hour (hover to see other rain measurements)
** Current wind speed in m/s (hover to see current wind gust speed)